Location: Home
(42.5358°N, 72.7383°W)
Time: 11:24:33
(UTC-05:00)

S-56A Canister/Altair - Pass Details

Date: 29 November 2021
Orbit: 634 x 2499 km, 38.9° (Epoch: 22 January)

Event Time Altitude Azimuth Distance (km) Brightness Sun altitude
Rises 04:52:31 0° 272° (W) 3,436 - -22.8°
Reaches altitude 10° 04:55:22 10° 267° (W) 2,308 - -22.3°
Exits shadow 04:59:18 40° 228° (SW) 997 7.8 -21.6°
Maximum altitude 05:00:14 46° 194° (SSW) 894 7.8 -21.4°
Drops below altitude 10° 05:04:27 10° 121° (ESE) 2,006 10.7 -20.6°
Sets 05:06:46 0° 115° (ESE) 2,934 12.0 -20.2°
